RH
42 45 35 42 49 72 90 100 100 100 100 100 91 58 59 78 90 61 67 100 88 54 43 52 79 87 99 100 98 98 100 100 100 86 66 67 68 83 99 78 77 79 80
42 48 69 92 96 100 100 100 100 100 98 75 46 33 26 26 29 28 31 52 46 51 56 38 48 76 94 100 98 99 98 100 100 100 99 88 95 99 95 99 85 82 84
42 44 57 68 80 86 89 79 69 63 50 25 20 18 16 15 14 13 14 18 22 29 35 42 81 68 74 83 92 98 99 100 99 100 99 100 100 100 100 99 91 90 89
57 53 52 55 52 48 46 41 36 47 34 25 23 22 22 21 20 18 14 15 17 22 31 38 67 82 77 92 71 63 96 99 100 99 100 100 100 100 99 97 98 100 97
56 54 52 48 44 41 37 34 32 31 31 29 29 29 28 26 24 22 18 17 20 25 37 43 55 96 99 96 99 100 94 83 99 99 100 100 100 100 100 100 96 99 100
59 59 56 54 52 49 45 42 39 37 35 33 32 31 30 28 27 23 20 23 28 32 38 46 69 82 96 97 94 97 98 99 96 98 100 100 100 100 100 100 100 100 100
71 68 66 61 56 53 51 47 42 39 37 35 33 32 31 31 30 28 26 28 36 50 55 58 96 76 84 96 92 97 100 99 99 97 99 99 100 99 100 100 99 100 100
81 78 73 68 62 57 54 48 41 36 33 32 32 33 33 34 34 34 35 36 40 46 59 78 90 82 100 97 100 100 100 100 99 99 98 100 99 99 100 100 100 100 100
90 85 76 70 63 55 45 42 44 45 46 42 34 30 31 35 38 38 40 42 44 45 48 54 64 77 83 94 99 100 99 100 99 99 100 100 98 96 99 99 98 100 99
95 93 81 63 60 58 56 58 60 61 60 59 57 51 39 31 35 41 42 44 48 50 53 56 60 66 70 78 83 89 95 96 99 99 99 99 100 91 99 100 96 90 92
96 96 94 85 79 76 74 72 71 70 68 66 66 65 60 48 36 40 46 49 54 56 59 63 66 67 71 75 81 85 92 98 99 100 100 99 99 98 98 96 92 83 96
96 96 96 96 96 96 96 96 91 72 70 68 67 68 70 68 59 50 49 59 61 63 64 63 64 64 65 65 65 66 71 76 82 83 84 92 98 98 88 73 58 48 43
96 96 96 96 96 96 96 96 94 79 71 70 69 69 71 74 72 67 60 62 66 66 65 65 62 59 56 52 49 46 43 41 41 41 40 43 52 52 67 74 70 62 45
96 96 96 96 96 96 96 96 96 96 94 83 76 75 76 79 82 82 77 73 71 70 69 67 65 62 58 53 49 45 42 39 36 34 31 29 28 27 26 26 26 26 24
97 96 96 96 96 96 96 96 96 94 91 90 91 88 87 87 90 90 88 84 80 77 72 70 67 63 60 56 52 48 44 42 39 37 35 32 30 29 27 26 24 24 22
97 97 97 96 96 96 95 83 69 61 58 63 72 76 85 91 93 92 91 90 87 82 79 75 72 66 62 58 55 53 52 53 54 50 42 35 32 31 29 29 28 28 27
97 97 97 97 94 88 78 64 46 37 36 38 42 47 54 66 73 80 86 88 89 90 90 90 91 90 83 70 61 56 53 52 50 51 53 53 49 44 38 36 34 32 29
96 88 75 63 54 48 43 38 35 30 27 25 24 26 30 35 42 52 64 71 75 78 81 84 88 90 91 91 89 82 70 58 54 53 51 50 51 51 51 51 50 46 42
76 71 66 63 58 54 50 45 40 37 35 32 28 23 20 20 21 25 34 42 52 65 71 74 77 80 84 86 88 87 87 86 85 82 76 66 60 58 57 62 61 55 51
92 86 80 76 70 63 59 54 49 44 39 36 34 29 24 18 16 16 18 20 25 34 43 55 67 75 77 77 77 77 78 80 81 80 78 78 79 79 76 74 73 73 72
100 100 98 85 77 70 66 64 59 54 48 44 40 36 24 19 14 13 13 13 15 16 18 21 27 36 50 62 70 73 72 74 76 75 76 78 79 76 75 73 73 76 76
93 90 84 80 79 76 75 74 71 64 58 52 48 42 36 18 16 15 14 12 11 10 11 14 17 18 18 21 34 44 51 60 68 71 74 77 80 79 80 80 80 80 78
94 92 90 88 87 87 83 80 77 69 62 58 54 49 42 31 18 18 17 16 15 14 12 10 9 10 13 17 17 17 21 32 40 44 43 47 59 75 80 82 87 92 88
67 74 78 78 84 88 80 72 67 64 60 56 48 38 35 36 24 20 21 21 20 18 18 17 15 13 11 9 8 10 15 18 18 19 23 31 36 37 41 63 76 90 91
43 41 40 42 50 59 58 53 52 53 51 52 42 27 28 29 26 24 24 24 25 24 23 21 21 20 20 18 16 13 10 9 9 11 17 19 20 26 33 36 40 67 85
53 49 47 46 46 45 45 52 51 48 47 43 30 25 24 25 27 28 28 28 27 27 26 26 25 24 23 23 22 21 19 16 13 11 9 9 17 24 24 27 35 38 46
Wind_Speed
28 33 37 38 41 42 44 44 42 41 42 39 38 35 35 34 35 34 30 26 29 23 24 25 11 21 27 34 34 29 42 34 38 40 42 42 40 36 34 37 36 32 29
33 30 33 34 35 37 38 40 41 41 38 36 35 34 33 32 33 30 29 31 31 31 27 25 20 14 19 39 37 36 26 26 40 45 43 46 44 39 43 41 40 38 35
37 34 31 32 31 32 34 33 33 32 35 31 31 28 26 27 27 26 26 30 32 31 30 27 28 25 19 16 26 37 46 37 33 27 42 43 46 45 44 44 42 41 41
35 35 32 30 30 30 31 30 29 31 35 30 30 28 27 27 27 27 27 28 29 29 29 32 35 33 25 17 23 24 29 25 37 34 27 39 48 51 50 45 44 46 45
34 33 32 31 30 29 29 30 30 30 28 29 30 29 28 28 27 28 28 28 28 29 28 29 30 30 32 26 27 28 25 29 29 36 40 36 34 43 49 57 51 48 52
35 34 33 32 30 29 29 29 30 30 31 30 30 29 29 29 27 28 29 29 28 29 29 27 25 27 28 31 28 25 23 24 24 23 29 36 30 29 28 33 47 47 50
33 32 31 31 31 30 29 29 29 29 29 29 29 29 29 28 28 28 29 29 28 27 27 26 26 27 30 29 31 33 28 27 28 25 24 20 26 37 38 33 30 24 35
29 29 29 29 29 29 28 26 26 26 26 27 27 27 27 27 28 29 28 28 28 28 28 27 28 27 28 30 28 34 31 32 32 30 25 25 22 20 20 27 30 35 40
27 27 27 27 27 27 26 25 24 24 24 25 25 25 25 26 27 28 28 28 28 28 28 28 27 28 28 28 31 30 32 33 29 28 27 24 25 24 24 24 25 25 21
25 25 25 25 25 25 25 25 25 25 26 26 27 27 27 27 26 27 28 27 27 27 27 27 27 27 27 27 28 28 30 32 30 30 30 30 27 28 32 29 27 27 27
24 26 27 26 24 25 25 25 26 26 27 28 28 29 29 29 27 27 27 28 28 27 27 26 27 27 27 27 27 27 28 28 29 30 31 32 30 30 30 29 29 28 29
20 23 25 26 27 28 28 27 25 25 25 25 25 26 27 28 27 27 27 27 27 27 27 27 27 27 28 27 27 26 27 27 27 28 29 29 31 33 32 31 31 30 31
13 14 15 16 17 18 19 20 21 21 22 23 23 24 25 25 26 27 27 26 27 27 28 27 27 27 27 27 27 27 26 26 26 27 28 28 29 30 31 32 32 33 33
13 13 13 12 11 11 11 12 14 16 18 19 21 22 23 24 24 25 26 26 27 27 27 28 28 28 28 28 28 28 28 27 27 27 28 28 28 29 29 30 31 31 32
14 15 14 13 11 10 9 9 9 10 12 13 15 18 20 21 23 24 25 25 26 26 27 27 28 28 29 29 29 29 28 28 29 29 29 29 29 29 30 29 30 31 32
12 11 10 9 9 9 9 10 11 12 12 13 13 14 16 18 20 22 24 26 26 27 27 27 28 28 29 29 30 31 31 31 30 29 29 29 29 30 31 31 31 31 31
7 7 7 8 9 11 13 15 16 17 17 18 18 18 19 20 20 21 23 25 26 28 29 30 30 30 31 31 31 31 30 30 30 30 30 30 30 31 31 31 31 32 32
6 8 10 11 12 13 14 16 18 20 22 23 24 24 25 25 25 26 26 26 27 27 29 30 31 31 32 33 34 34 34 33 32 32 32 32 31 31 32 32 33 34 35
11 12 13 15 16 16 17 18 19 20 22 24 26 27 28 29 30 31 31 31 31 31 31 30 31 31 32 33 33 34 35 35 35 36 37 36 36 36 35 34 33 34 35
17 17 18 18 19 19 21 22 22 23 23 24 26 27 29 30 30 31 32 34 35 35 34 33 33 32 31 32 33 34 35 35 34 34 34 35 37 38 39 39 37 37 37
26 26 26 25 25 26 26 26 27 27 26 26 26 27 29 30 30 31 31 32 32 33 35 36 36 35 33 34 34 34 34 33 33 33 32 33 34 35 35 36 35 35 35
33 32 32 32 32 32 31 31 30 30 29 28 28 28 29 29 30 30 30 30 31 31 32 33 33 35 37 39 38 37 37 35 34 32 31 31 32 34 34 34 33 33 34
38 39 39 40 39 38 37 35 34 32 31 29 28 28 29 30 30 30 30 30 29 29 29 29 30 32 34 34 36 39 41 41 39 36 33 33 33 33 33 32 32 31 31
45 46 46 45 43 42 40 37 35 34 31 30 29 28 28 29 29 30 30 29 29 29 28 28 27 28 28 29 32 35 36 37 39 40 40 40 39 38 36 33 30 29 31
41 42 42 42 42 42 40 37 35 34 31 29 28 28 27 28 28 29 29 29 29 29 29 29 28 28 27 28 29 29 30 31 34 37 38 40 43 43 41 36 33 33 33
38 39 39 39 38 39 37 35 34 33 30 28 28 27 27 27 27 27 27 28 28 29 29 29 29 30 29 29 31 31 30 30 31 33 34 37 39 41 41 40 39 38 37
Wind_Direction
233 232 231 232 231 228 227 227 227 228 230 231 235 240 243 246 250 259 253 255 266 262 273 278 287 290 232 225 221 226 230 237 245 244 240 237 234 228 232 230 227 227 227
234 231 230 231 231 230 229 230 229 230 234 234 238 239 243 248 250 254 256 257 260 262 253 258 263 255 281 230 234 244 236 229 232 232 240 244 240 239 231 231 232 231 232
229 231 225 224 225 225 227 230 229 230 239 238 238 238 240 245 250 252 252 254 257 258 256 256 256 254 251 267 267 255 250 253 249 247 237 231 237 239 238 239 240 233 232
221 221 222 222 221 221 226 230 231 230 236 236 240 241 244 246 250 252 254 251 253 254 253 251 248 260 253 248 252 278 273 265 255 245 251 239 239 237 239 233 238 237 239
223 224 223 224 225 225 225 227 231 234 238 241 245 246 247 249 248 250 252 252 251 252 250 247 240 245 252 246 241 249 262 282 279 260 248 245 245 245 246 250 240 248 243
224 226 228 230 231 231 233 234 237 238 240 242 244 246 247 247 246 246 247 248 248 249 249 249 245 240 243 247 247 245 250 261 258 284 252 244 240 239 243 249 241 241 240
222 225 227 229 232 235 235 235 234 236 237 240 241 243 245 245 244 244 244 246 246 246 248 246 238 245 242 245 249 244 253 255 258 259 266 257 251 246 243 251 252 249 248
225 225 227 228 230 232 233 230 227 228 229 231 235 238 240 242 242 242 241 240 241 241 243 241 240 240 238 248 246 241 246 247 249 254 247 249 257 265 259 251 257 259 253
219 222 224 225 226 226 228 229 228 228 229 231 233 235 237 237 237 238 239 239 238 238 239 241 240 241 242 242 244 248 245 242 250 240 245 242 246 249 247 248 247 248 250
213 215 217 220 221 221 224 228 230 232 232 232 233 234 235 236 236 235 237 239 239 239 239 241 242 242 241 242 244 244 245 250 249 246 243 238 240 244 241 240 240 238 238
215 215 216 218 221 224 226 231 234 234 235 235 235 234 234 235 235 234 234 236 237 237 238 240 241 243 244 243 243 244 243 241 242 241 240 244 238 239 245 241 244 247 245
216 221 225 227 228 229 233 232 230 233 233 234 235 236 235 235 236 235 234 234 236 238 239 239 240 240 242 245 245 244 244 244 242 242 242 243 244 239 241 245 246 248 253
209 212 214 216 218 219 220 221 223 228 231 232 232 233 234 234 234 235 237 236 235 235 238 240 240 241 242 242 244 245 246 246 245 246 246 245 245 247 250 250 251 253 253
205 207 208 209 210 212 214 216 218 223 228 232 232 231 231 232 234 234 235 236 237 237 237 238 241 242 242 244 245 245 246 247 249 250 250 252 251 251 251 252 254 255 257
214 212 211 211 213 215 218 220 221 222 223 227 230 233 232 232 232 234 236 237 238 238 239 239 240 242 244 244 245 246 247 247 248 250 252 253 255 256 257 258 258 258 258
216 214 215 217 223 233 241 245 246 245 242 239 238 238 238 237 235 236 237 239 241 242 242 242 243 244 245 246 247 247 249 250 251 250 250 252 253 255 256 257 259 260 261
229 240 249 257 261 263 262 261 262 262 259 257 253 249 247 247 247 245 244 244 245 246 248 250 249 249 248 249 249 249 250 250 251 253 254 254 254 255 256 257 258 260 261
272 264 260 260 261 263 265 267 268 268 268 266 262 259 256 253 251 250 250 250 250 249 249 249 250 252 253 253 253 252 251 252 253 254 254 255 255 256 257 258 259 260 261
271 268 268 269 272 274 276 275 273 270 268 267 265 262 260 258 256 253 251 251 251 251 252 252 252 251 253 255 257 257 257 256 255 255 256 258 258 258 257 259 262 263 265
277 276 275 276 278 280 280 279 278 275 273 268 264 262 258 257 257 256 255 254 252 251 251 251 252 252 252 254 255 257 258 259 259 259 258 258 259 261 262 263 264 266 268
269 272 274 276 278 280 280 280 279 277 275 272 268 263 259 255 253 254 255 255 255 254 253 252 252 252 252 253 254 255 256 257 259 260 260 259 258 259 260 262 262 264 266
267 269 271 275 277 279 279 279 279 277 275 273 268 264 260 258 255 254 255 255 256 256 256 255 253 252 251 250 251 253 255 255 255 256 258 259 259 260 261 262 263 264 265
265 267 270 272 274 276 277 276 275 275 274 272 269 264 259 256 255 254 255 255 255 255 256 256 255 254 253 253 252 251 252 253 255 255 256 257 258 259 261 262 261 262 263
262 263 264 266 269 271 273 273 272 272 272 271 269 265 259 255 253 253 254 255 256 255 255 255 254 254 256 256 254 253 253 254 254 254 253 252 254 255 257 258 263 260 261
263 262 263 263 264 266 267 269 268 268 268 267 266 263 258 254 253 252 253 254 256 256 257 256 255 254 254 256 258 258 257 256 254 253 252 252 252 254 255 256 256 256 257
263 262 262 261 260 261 263 263 263 264 264 263 261 257 254 253 253 253 254 254 254 257 257 257 257 257 256 256 257 258 258 258 258 258 255 253 252 254 253 252 253 254 255